Regional Weather Roundup
Issued by NWS

Home | Current Version | Previous Version | Text Only | Print | Product List | Glossary On
Versions: 1 2 3 4 5 6 7 8 9 10 11 12 13 14 15 16 17 18 19 20 21 22 23 24 25 26 27 28 29 30 31 32 33 34 35 36 37 38 39 40 41 42 43 44 45 46 47 48 49 50
000
ASUS43 KMPX 230710
RWRMN
WEATHER ROUNDUP FOR MINNESOTA
NATIONAL WEATHER SERVICE TWIN CITIES/CHANHASSEN MN
100 AM CST SUN NOV 23 2014


NOTE: "FAIR" INDICATES FEW OR NO CLOUDS BELOW 12,000 FEET WITH NO
SIGNIFICANT WEATHER AND/OR OBSTRUCTIONS TO VISIBILITY. N/A MEANS
CURRENT SKY AND/OR WEATHER CONDITIONS ARE NOT AVAILABLE.

MNZ060>063-068>070-230800-
   Twin Cities Metro

CITY           SKY/WX    TMP DP  RH WIND       PRES   REMARKS
TWIN CITIES    CLOUDY    39  39 100 SE8       29.48F FOG
ST PAUL        CLOUDY    39  39 100 S8        29.50F FOG
CRYSTAL        CLOUDY    42  40  92 S10       29.45F FOG
LAKEVILLE      MOCLDY    46  45  93 S9        29.48F FOG
EDEN PRAIRIE   CLOUDY    49  46  90 S14       29.46F
SOUTH ST PAUL  MOCLDY    41  40  96 S3        29.49F FOG
LAKE ELMO      CLOUDY    43  43 100 S9        29.50F FOG
$$
MNZ001>005-007-008-013>017-022>024-027-028-230800-
   Northwest Minnesota

CITY           SKY/WX    TMP DP  RH WIND       PRES   REMARKS
BEMIDJI        CLOUDY    32  31  98 S8        29.40R FOG     WCI  25
HALLOCK        CLOUDY    34  32  93 S18       29.34F FOG     WCI  23
ROSEAU         CLOUDY    36  30  80 S7        29.38R
WARROAD        CLOUDY    36  30  80 SE10      29.37F
THIEF RVR FALL CLOUDY    34  30  86 S7        29.38S WCI  28
CROOKSTON      CLOUDY    34  32  93 S10       29.37F FOG     WCI  26
FOSSTON        CLOUDY    32  30  93 S10       29.38S FOG     WCI  24
DETROIT LAKES  CLOUDY    34  34 100 SE8       29.38F FOG     WCI  27
MOORHEAD       CLOUDY    36  36 100 S9        29.38F FOG
PARK RAPIDS    FOG       32  32 100 SE8       29.39F VSB 3/4 WCI  25
MAHNOMEN       CLOUDY    33  32  96 SE9       29.36F FOG     WCI  25
$$
MNZ006-009>011-018-025>026-230800-
   North Central Minnesota

CITY           SKY/WX    TMP DP  RH WIND       PRES   REMARKS
BAUDETTE       CLOUDY    34  29  82 S14G22    29.40R WCI  25
FLAG ISLAND    CLOUDY    34  30  86 SE6       29.37F WCI  29
INTL FALLS     CLOUDY    33  29  85 VRB7      29.45R WCI  27
WASKISH        CLOUDY    34  30  86 SE7       29.40F FOG     WCI  28
BIG FORK       CLOUDY    34  30  86 S10       29.43F FOG     WCI  26
LONGVILLE      FOG       32  32 100 SE5       29.41F VSB 3/4 WCI  27
GRAND RAPIDS   CLOUDY    34  30  86 SE7       29.44S VSB 3/4 WCI  28
CRANE LAKE     CLOUDY    32  30  93 SE3       29.48F FOG
ORR            CLOUDY    32  28  86 S10       29.43F WCI  24
COOK           CLOUDY    34  30  86 SE12      29.46F FOG     WCI  25
WALKER         FOG       32  31  99 SE5       29.41S VSB 1   WCI  27
$$
MNZ012-019>021-037-230800-
   Northeast Minnesota

CITY           SKY/WX    TMP DP  RH WIND       PRES   REMARKS
DULUTH         DRZL/FOG  34  32  92 E12       29.48F VSB 1/4 WCI  25
ELY            CLOUDY    34  30  86 SE10G20   29.49F FOG     WCI  26
HIBBING        FOG       33  31  92 SE9       29.46F VSB 1   WCI  25
EVELETH        CLOUDY    32  32 100 SE7       29.48F FOG     WCI  26
DULUTH HARBOR  CLOUDY    37  36  93 CALM      29.51F FOG
TWO HARBORS    MIX PCPN  37  32  81 E8        29.50F
SILVER BAY     CLOUDY    36  34  93 NE5       29.53F FOG
GRAND MARAIS     N/A     38  34  85 S12       29.62R
G MARAIS ARPRT CLOUDY    30  28  93 SE6       29.58R VSB 1/4 WCI  24
$$
MNZ029>031-032-039>041-046>048-054>057-064-230800-
   West Central Minnesota

CITY           SKY/WX    TMP DP  RH WIND       PRES   REMARKS
FERGUS FALLS   MOCLDY    34  34 100 SE8       29.39F FOG     WCI  27
WHEATON        CLOUDY    30  30 100 SE8       29.39F FOG     WCI  23
MORRIS         CLOUDY    34  34 100 SE8       29.39S FOG     WCI  27
ALEXANDRIA     CLOUDY    34  34 100 S8        29.40S FOG     WCI  27
ELBOW LAKE       N/A     33  32  98 SE8       29.37F FOG     WCI  26
WADENA         FOG       32  32 100 SE5       29.39F VSB 1/4 WCI  27
GLENWOOD       CLOUDY    36  34  93 S6        29.41R FOG
APPLETON       CLOUDY    39  34  81 SW9       29.42R
BENSON         CLOUDY    36  34  93 SW9       29.41R FOG
ORTONVILLE     CLOUDY    36  30  80 S7        29.41R
MADISON        CLOUDY    45  36  70 W9        29.41R
WILLMAR        FAIR      37  36  93 S3        29.43F FOG
$$
MNZ033>034-036-042>043-049>051-058-059-230800-
   Central Minnesota

CITY           SKY/WX    TMP DP  RH WIND       PRES   REMARKS
ST CLOUD       FOG       37  36  96 S6        29.43F VSB 1/4
SAUK CENTRE    CLOUDY    34  34 100 S7        29.41S FOG     WCI  28
PAYNESVILLE    CLOUDY    35  35 100 SE10      29.42S FOG     WCI  27
AITKIN         HAZE      37  32  81 SE5       29.41F VSB 1/4
PINE RIVER     FOG       34  34 100 SE7       29.45F VSB 1/2 WCI  28
BRAINERD       FOG       33  33 100 SE5       29.42F VSB 1/4 WCI  29
STAPLES        FOG       34  34 100 CALM      29.40F VSB 1/2
LONG PRAIRIE   FOG       32  32 100 S6        29.41S VSB 1/4 WCI  26
LITTLE FALLS   FOG       34  34 100 SE6       29.42F VSB 1/4 WCI  29
LITCHFIELD     CLOUDY    41  41 100 SW3       29.43F FOG
BUFFALO        CLOUDY    41  40  95 S3        29.45F FOG
MAPLE LAKE     CLOUDY    41  41  99 S5        29.44F FOG
$$
MNZ037-044-045-052-053-230800-
   East Central Minnesota

CITY           SKY/WX    TMP DP  RH WIND       PRES   REMARKS
PRINCETON      FOG       39  37  93 SE7       29.44F VSB 1/4
MORA           FOG       36  34  93 SE5       29.46F VSB 1/2
CAMBRIDGE      HAZE      41  36  81 S7        29.43F VSB 1
RUSH CITY      CLOUDY    38  37  97 SE7       29.46F FOG
MOOSE LAKE     CLOUDY    36  34  93 CALM      29.44F FOG
HINCKLEY       FOG       36  36 100 SE5       29.46F VSB 1/2
CLOQUET        SNOW      34  32  93 E6        29.47F VSB 1/4 WCI  29
MCGREGOR       CLOUDY    34  34 100 SE6       29.45F VSB 3/4 WCI  29
$$
MNZ071>073-080-081-089-090-097-098-230800-
   Southwest Minnesota

CITY           SKY/WX    TMP DP  RH WIND       PRES   REMARKS
MONTEVIDEO     CLOUDY    39  37  93 W3        29.42R
GRANITE FALLS  DRIZZLE   40  36  85 S12       29.43S
CANBY          CLOUDY    42  35  74 SW16G24   29.40S
MARSHALL       CLOUDY    45  36  70 SW20G26   29.41S
REDWOOD FALLS  CLOUDY    46  43  89 SW20      29.43S
OLIVIA         CLOUDY    39  37  93 SW9       29.42F FOG
PIPESTONE      CLOUDY    39  37  93 SW8       29.44F FOG
WINDOM         CLOUDY    50  46  87 S13G18    29.46F FOG
WORTHINGTON    CLOUDY    48  46  93 SW15      29.47F
JACKSON        CLOUDY    48  45  87 S9        29.48F
TRACY          CLOUDY    45  43  93 SW21G26   29.43F FOG
SLAYTON        FOG       43  43 100 SW18      29.45F VSB 1
$$
MNZ065>067-074>077-082>085-091>093-230800-
   South Central Minnesota

CITY           SKY/WX    TMP DP  RH WIND       PRES   REMARKS
MANKATO        CLOUDY    50  46  87 S10       29.48F
NEW ULM        CLOUDY    48  48 100 S12       29.45F
ST JAMES       CLOUDY    50  46  87 S16       29.48S
FAIRMONT       CLOUDY    50  46  87 S13       29.49F
GLENCOE        CLOUDY    47  46  95 S8        29.44F
FARIBAULT      CLOUDY    48  46  93 S9        29.50F FOG
OWATONNA       MOCLDY    48  48 100 S10       29.51F FOG
WASECA         CLOUDY    50  46  87 S18       29.51F
ALBERT LEA     CLOUDY    52  52 100 S14G21    29.52F
$$
MNZ078>079-086>088-094>096-230800-
   Southeast Minnesota

CITY           SKY/WX    TMP DP  RH WIND       PRES   REMARKS
ROCHESTER      CLOUDY    49  48  97 S17       29.56F FOG
RED WING         N/A     45  43  93 S3        29.52F FOG
STANTON        CLOUDY    49  46  92 S12G17    29.50S FOG
DODGE CENTER   CLOUDY    48  48 100 S15       29.53F FOG
WINONA         CLOUDY    54  50  87 S9G17     29.57S
AUSTIN         CLOUDY    48  48 100 S16G22    29.55F FOG
PRESTON        CLOUDY    49  48  98 S16G29    29.58F FOG
$$
ABBREVIATIONS USED IN REMARKS
   TC - TEMPERATURES IN CELSIUS
  WCI - WIND CHILL INDEX
   HX - HEAT INDEX
  VSB - VISIBILITY
$$



USA.gov is the U.S. government's official web portal to all federal, state and local government web resources and services.